Palm Springs, CA

6:47 PM PST on January 21, 2018 (GMT -0800)
Palm Springs International

Weather History for KPSP - July, 2012

Change the Weather History Date:

Saturday, July 28, 2012

  Actual Average Record
Temperature  
Mean Temperature 91 °F 93 °F  
Max Temperature 108 °F 108 °F 123 °F (1995)
Min Temperature 73 °F 78 °F 59 °F (1941)
Degree Days  
Heating Degree Days 0 0  
Month to date heating degree days 0 0  
Since 1 June heating degree days 0 0  
Since 1 July heating degree days 0 0  
Cooling Degree Days 26 28  
Month to date cooling degree days 768 764  
Year to date cooling degree days 2408 2170  
Since 1 June cooling degree days 1469 1411  
Growing Degree Days 40 (Base 50)    
Moisture  
Dew Point 39 °F    
Average Humidity 26    
Maximum Humidity 46    
Minimum Humidity 5    
Precipitation  
Precipitation 0.00 in 0.02 in 0.83 in (1968)
Month to date precipitation T 0.20  
Year to date precipitation 0.79 3.14  
Since 1 July precipitation T  
Snow  
Snow 0.00 in - - ()
Month to date snowfall 0.0  
Year to date snowfall 0.0  
Snow Depth 0.00 in    
Sea Level Pressure  
Sea Level Pressure 29.80 in    
Wind  
Wind Speed 4 mph (East)    
Max Wind Speed 13 mph    
Max Gust Speed 16 mph    
Visibility 10 miles    
Events      
T = Trace of Precipitation, MM = Missing Value Source: NWS Daily Summary

Daily Weather History Graph

Daily Weather History Graph

Search for Another Location

Airport or City:

Trip Planner

Search our weather history database for the weather conditions in past years. The results will help you decide how hot, cold, wet, or windy it might be!

Date:

Astronomy

Jul. 28, 2012 Rise Set
Actual Time 5:55 AM PDT 7:49 PM PDT
Civil Twilight 5:27 AM PDT 8:16 PM PDT
Nautical Twilight 4:54 AM PDT 8:50 PM PDT
Astronomical Twilight 4:18 AM PDT 9:25 PM PDT
Moon 3:55 PM PDT (7/28) 1:20 AM PDT (7/28)
Length of Visible Light 14h 48m
Length of Day
13h 53m
Waxing Gibbous, 77% of the Moon is Illuminated
Jul 28
Waxing Gibbous
Aug 1
Full
Aug 9
Last Quarter
Aug 17
New
Aug 24
First Quarter

Hourly Weather History & Observations

Time (PDT) Temp. Dew Point Humidity Pressure Visibility Wind Dir Wind Speed Gust Speed Precip Events Conditions
12:53 AM 82.9 °F 44.1 °F 25% 29.79 in 10.0 mi Calm Calm - N/A   Clear
1:53 AM 81.0 °F 45.0 °F 28% 29.78 in 10.0 mi Calm Calm - N/A   Clear
2:53 AM 81.0 °F 46.0 °F 29% 29.78 in 10.0 mi Calm Calm - N/A   Clear
3:53 AM 75.9 °F 51.1 °F 42% 29.78 in 10.0 mi SW 3.5 mph - N/A   Clear
4:53 AM 75.9 °F 48.9 °F 38% 29.78 in 10.0 mi Calm Calm - N/A   Clear
5:53 AM 73.0 °F 52.0 °F 48% 29.79 in 10.0 mi Calm Calm - N/A   Clear
6:53 AM 79.0 °F 46.9 °F 32% 29.80 in 10.0 mi Calm Calm - N/A   Clear
7:53 AM 82.9 °F 45.0 °F 26% 29.83 in 10.0 mi Calm Calm - N/A   Clear
8:53 AM 90.0 °F 41.0 °F 18% 29.83 in 10.0 mi SSE 4.6 mph - N/A   Clear
9:53 AM 93.0 °F 36.0 °F 13% 29.85 in 10.0 mi SE 12.7 mph - N/A   Clear
10:53 AM 97.0 °F 30.9 °F 10% 29.85 in 10.0 mi East 10.4 mph - N/A   Clear
11:53 AM 99.0 °F 33.1 °F 10% 29.85 in 10.0 mi ENE 6.9 mph - N/A   Clear
12:53 PM 102.0 °F 33.1 °F 9% 29.84 in 10.0 mi NE 5.8 mph - N/A   Clear
1:53 PM 102.9 °F 30.0 °F 8% 29.82 in 10.0 mi East 5.8 mph - N/A   Clear
2:53 PM 106.0 °F 21.0 °F 5% 29.81 in 10.0 mi Variable 4.6 mph - N/A   Clear
3:53 PM 106.0 °F 23.0 °F 5% 29.78 in 10.0 mi ENE 5.8 mph - N/A   Clear
4:53 PM 105.1 °F 25.0 °F 6% 29.76 in 10.0 mi East 8.1 mph - N/A   Clear
5:53 PM 105.1 °F 32.0 °F 8% 29.74 in 10.0 mi SE 4.6 mph - N/A   Clear
6:53 PM 104.0 °F 35.1 °F 9% 29.75 in 10.0 mi Variable 3.5 mph - N/A   Clear
7:53 PM 99.0 °F 39.9 °F 13% 29.77 in 10.0 mi NW 16.1 mph - N/A   Clear
8:53 PM 96.1 °F 41.0 °F 15% 29.78 in 10.0 mi NW 13.8 mph - N/A   Clear
9:53 PM 93.0 °F 43.0 °F 18% 29.81 in 10.0 mi NW 13.8 mph - N/A   Clear
10:53 PM 88.0 °F 46.9 °F 24% 29.83 in 10.0 mi NE 5.8 mph - N/A   Clear
11:53 PM 84.9 °F 48.9 °F 29% 29.87 in 10.0 mi West 3.5 mph - N/A   Clear